Theta_e
346 346 347 346 346 345 344 345 345 346 346 347 346 345 344 345 345 343 341 338 335 332 333 339 339 341 341 340 338 339 337 336
347 346 347 347 347 343 343 343 344 345 345 345 343 342 343 343 343 342 340 337 334 332 331 334 338 339 338 337 337 338 335 336
348 347 346 347 347 346 343 344 343 343 345 343 339 342 341 340 340 340 339 337 334 332 331 329 335 336 337 336 336 336 336 334
347 346 347 347 346 345 345 344 344 344 345 344 343 343 341 341 339 338 338 336 334 333 331 329 327 325 333 335 334 333 332 330
347 349 348 347 346 346 345 344 343 344 344 344 342 343 340 339 336 334 334 334 331 330 328 325 322 321 331 332 332 332 333 332
346 350 348 348 348 348 346 345 345 344 346 345 343 343 342 341 339 339 336 334 333 332 332 331 332 332 329 327 326 330 332 331
344 347 349 349 347 347 346 347 346 346 346 346 346 343 341 341 340 338 337 335 335 336 335 333 333 332 330 328 325 325 328 330
345 346 346 347 346 345 348 347 346 347 347 345 345 344 342 338 341 340 339 339 337 336 333 334 332 331 330 328 328 326 325 326
344 346 346 345 344 345 344 347 347 345 345 345 344 345 343 340 340 338 339 338 338 336 334 333 331 330 325 324 324 325 325 326
344 346 345 344 344 343 342 344 344 343 343 345 344 343 342 341 339 338 338 338 336 333 333 330 329 328 325 323 321 322 323 320
343 344 345 343 342 342 342 344 342 344 344 342 343 342 342 340 339 339 339 337 334 332 329 328 327 326 326 323 322 321 320 321
343 344 345 341 340 340 341 342 340 339 339 340 339 341 342 341 340 338 338 333 331 330 328 327 325 324 324 320 320 320 320 318
343 343 343 339 338 338 338 335 337 337 337 339 340 341 342 341 340 338 333 330 329 327 325 323 321 322 318 319 319 320 319 320
343 345 343 339 339 339 339 337 336 337 337 339 340 342 341 341 338 332 331 327 327 324 324 321 320 321 316 314 309 310 315 317
342 345 345 341 340 339 336 336 335 335 335 338 339 341 341 339 336 329 328 327 323 323 320 318 315 317 318 314 306 303 309 312
339 343 345 344 341 338 336 333 331 334 336 337 338 340 339 337 330 328 327 326 322 320 320 318 316 312 315 317 316 312 307 305
338 338 340 345 340 338 338 334 334 336 337 337 338 337 336 331 328 326 322 320 318 318 317 317 317 314 312 312 313 312 311 307
340 339 336 343 341 340 338 335 334 335 335 335 333 331 327 325 324 322 321 320 318 319 318 318 317 316 315 314 312 309 306 305
334 336 338 340 339 339 338 336 336 335 334 332 325 323 321 320 320 320 320 320 319 319 317 317 316 314 314 313 313 313 312 310
331 332 333 336 336 337 338 337 337 335 331 327 322 319 319 321 320 320 319 319 318 317 316 315 315 315 314 313 313 313 312 311
Wind_Speed
11 11 11 9 10 11 12 12 11 11 10 9 10 9 8 8 7 7 6 6 4 3 2 2 2 3 4 6 8 12 5 6
11 11 10 9 8 9 10 10 10 10 10 10 10 9 8 7 7 7 6 5 4 3 3 2 2 3 3 4 6 10 7 8
10 11 11 11 11 9 9 11 11 10 9 9 7 6 7 9 6 10 7 6 5 4 3 3 4 4 4 4 4 4 7 6
12 11 12 10 9 11 9 9 7 8 8 8 7 7 7 8 9 9 8 6 4 5 4 5 5 5 4 5 3 6 5 4
16 13 13 13 9 8 7 6 7 7 11 10 9 5 4 5 5 5 5 7 5 6 6 5 8 6 3 6 7 7 4 2
14 13 11 10 6 8 8 8 7 7 8 9 6 3 6 4 5 6 6 5 6 7 5 6 6 3 4 5 5 3 1 1
13 13 10 9 9 7 6 7 6 7 7 9 6 5 5 5 4 4 3 5 4 4 2 1 3 5 5 4 4 5 6 1
15 17 13 10 8 7 6 7 8 8 7 8 10 7 5 6 4 4 3 4 4 2 1 2 3 3 4 4 4 3 3 5
16 17 17 12 11 8 4 7 8 6 7 7 8 7 6 4 3 2 2 0 1 2 1 3 3 3 3 5 4 5 4 2
17 14 17 15 11 8 7 7 5 5 5 7 8 7 5 4 5 4 5 4 4 2 4 1 2 3 3 3 3 4 6 5
17 14 17 14 11 9 9 9 6 4 4 4 8 7 6 5 4 5 6 5 4 4 3 3 3 3 4 3 3 3 4 4
19 14 13 13 9 8 7 6 5 4 4 5 5 5 8 6 6 6 6 4 4 3 5 2 1 2 2 2 4 4 5 4
19 19 17 12 9 10 9 8 7 7 6 10 11 10 9 8 5 6 6 3 4 3 2 3 1 2 2 3 4 6 6 6
16 19 20 16 11 9 6 8 7 7 8 10 10 10 10 9 9 5 6 5 4 3 4 2 2 3 3 3 3 4 6 7
14 19 21 18 17 10 4 5 5 7 10 9 11 12 9 7 6 4 5 5 3 5 4 3 3 3 3 3 3 3 6 2
4 7 17 19 19 16 16 9 9 9 8 9 9 10 9 9 6 6 4 4 5 4 4 3 3 3 3 3 4 3 4 6
4 5 3 15 18 17 14 14 10 9 9 12 11 9 9 6 6 6 6 3 2 3 3 3 2 3 3 3 4 3 4 5
3 5 4 14 13 13 14 15 13 10 10 9 6 5 5 6 7 6 6 4 4 4 3 4 4 4 4 4 4 4 3 4
3 6 4 11 12 12 13 15 14 13 10 6 5 6 4 6 6 6 4 5 5 3 3 5 4 3 5 5 4 5 4 4
8 7 7 6 7 10 10 13 9 6 7 4 6 5 6 8 7 8 8 7 5 4 3 3 4 5 7 7 6 5 5 4
Wind_Direction
143 154 147 127 127 133 137 144 144 146 148 151 142 143 145 146 139 138 136 136 131 128 178 195 231 250 257 266 269 281 293 289
146 155 157 155 150 138 146 147 147 150 155 158 149 154 160 152 157 159 156 143 151 184 218 241 258 233 247 271 281 286 277 273
163 165 165 165 159 159 154 152 153 152 159 158 149 187 178 166 159 147 156 164 182 202 228 252 252 250 246 237 260 254 257 253
169 183 166 171 169 153 171 167 171 180 176 164 197 220 189 177 138 149 165 179 198 213 233 243 250 250 197 205 233 253 286 276
165 184 173 176 183 165 173 172 183 188 184 174 210 193 165 147 155 177 174 194 200 198 203 220 220 231 157 203 209 223 231 292
174 147 163 169 171 174 176 177 185 189 188 183 196 194 198 207 190 190 187 169 212 188 196 218 219 350 308 301 303 275 230 100
175 158 163 165 162 185 202 181 184 181 179 190 193 201 203 216 188 190 200 174 204 210 207 103 233 226 232 254 282 302 308 301
162 162 175 173 170 197 176 173 189 185 189 193 191 201 209 206 169 171 180 173 183 160 101 340 286 342 308 278 234 297 311 6
162 161 164 180 179 188 196 188 191 194 181 175 189 196 221 171 143 183 242 244 157 83 5 234 273 351 13 3 358 1 316 24
158 152 164 171 182 175 190 232 180 182 168 182 187 189 203 149 177 207 206 188 169 196 219 263 286 276 325 315 311 330 307 309
159 162 160 166 181 177 188 214 169 169 182 158 170 186 182 190 201 208 198 186 176 192 180 151 243 246 236 239 239 255 256 260
161 162 151 155 186 190 187 180 167 152 163 186 216 193 204 191 196 201 223 175 207 171 158 175 179 265 314 290 276 254 248 252
165 159 161 160 189 191 189 185 172 185 186 198 210 192 196 198 214 204 170 210 86 68 43 85 302 238 252 249 243 234 236 227
164 164 163 173 178 195 189 185 192 189 197 202 205 206 191 194 215 174 128 125 140 176 194 211 227 202 226 240 276 269 232 242
172 167 167 174 174 170 172 181 187 190 202 208 204 203 199 204 202 145 152 130 177 193 164 200 236 255 226 206 307 260 345 183
268 203 170 172 174 176 177 195 199 203 200 204 198 206 200 203 161 148 176 166 181 170 183 195 190 234 275 241 234 240 287 297
208 261 180 176 173 179 183 183 203 196 207 196 194 193 204 170 180 167 150 151 174 181 216 221 218 177 214 243 243 245 247 255
51 296 249 164 179 194 196 187 190 215 204 202 190 166 178 168 155 153 159 165 184 206 218 225 218 229 229 234 209 221 212 225
180 235 207 163 182 197 197 197 198 214 206 187 162 166 178 169 156 159 160 191 197 200 221 231 231 233 236 243 243 239 233 230
187 220 238 193 189 212 208 211 213 202 165 177 196 178 171 160 163 169 188 185 185 199 211 234 235 243 235 236 243 254 262 235